Powrót do katalogu

STARLINK-32245

AktywnyŁącznośćVLEO
NORAD 62133·PAYLOAD·🇺🇸 United States

Wystrzelony Nov 27, 2024 z Cape Canaveral Space Force Station

Loading…

Następne Przeloty (najbliższe 24 godziny)

TLE

ŚwieżeSource: CelesTrak SupGP

Epoka: Sep 15, 2026, 03:12 UTC

1 62133C 24222V   26258.13381944  .00040809  00000+0  14781-2 0  2584
2 62133  43.0029 146.3644 0001349 271.1582   4.2116 15.27558936    12

Śledź STARLINK-32245 w czasie rzeczywistym z AllMySat

Download on the App Store